Location: Cedar Brake
(32.2526°N, 97.8459°W)
Time: 08:54:47
(UTC+00:00)

CZ-3 R/B - Pass Details

Date: 22 April 2026
Orbit: 564 x 9991 km, 28.2° (Epoch: 15 May)

Event Time Altitude Azimuth Distance (km) Brightness Sun altitude
Rises 10:31:52 0° 271° (W) 11,957 6.6 -17.1°
Reaches altitude 10° 10:44:12 10° 271° (W) 9,127 5.9 -14.7°
Maximum altitude 11:08:58 70° 193° (SSW) 2,031 3.0 -9.9°
Drops below altitude 10° 11:15:53 10° 110° (ESE) 2,914 4.8 -8.6°
Sets 11:17:38 0° 108° (ESE) 3,541 5.4 -8.2°
